#�ϑ�����,���ϕ���,���ϕ���,�ő啗��,�ő啗����������,�ő�u�ԕ���,�ő�u�ԕ�����������
#(�N����),(m/s)   ,(16����),(m/s)   ,(16����)        ,(m/s)       ,(16����)            
2015/12/12 0:01,5.5,15,5.5,15,6.5,14
2015/12/12 0:02,5.2,15,5.5,15,6.7,16
2015/12/12 0:03,5.1,15,5.2,15,8.2,15
2015/12/12 0:04,5.1,15,5.1,15,7.4,15
2015/12/12 0:05,5,15,5,15,9,15
2015/12/12 0:06,5,15,5.1,15,8.9,16
2015/12/12 0:07,5.1,15,5.1,15,8.4,15
2015/12/12 0:08,4.7,15,5,15,3.2,15
2015/12/12 0:09,4.2,15,4.7,15,2.2,16
2015/12/12 0:10,3.6,15,4.2,15,2.1,14
2015/12/12 0:11,3.4,15,3.6,15,3.9,15
2015/12/12 0:12,3.5,15,3.5,15,7.7,14
2015/12/12 0:13,3.5,15,3.5,15,9,15
2015/12/12 0:14,3.5,15,3.5,15,9.5,16
2015/12/12 0:15,3.6,15,3.6,15,7.9,1
2015/12/12 0:16,3.4,15,3.5,15,7.6,16
2015/12/12 0:17,3.2,15,3.4,15,5.5,15
2015/12/12 0:18,3.3,15,3.3,15,4.9,14
2015/12/12 0:19,3.4,15,3.4,15,2.9,16
2015/12/12 0:20,3.5,15,3.5,15,2.2,13
2015/12/12 0:21,3.4,15,3.5,15,3.6,9
2015/12/12 0:22,3.1,15,3.4,15,2.7,6
2015/12/12 0:23,2.8,15,3.1,15,2.6,13
2015/12/12 0:24,2.5,14,2.8,15,3.6,16
2015/12/12 0:25,2.3,14,2.5,15,4.3,16
2015/12/12 0:26,2.1,14,2.4,15,4.5,16
2015/12/12 0:27,2.1,14,2.1,15,5.1,13
2015/12/12 0:28,2.1,13,2.1,15,5.4,13
2015/12/12 0:29,2.1,13,2.1,15,2.7,12
2015/12/12 0:30,2.2,14,2.2,15,6.3,15
2015/12/12 0:31,2.3,14,2.3,15,5.8,14
2015/12/12 0:32,2.9,14,2.9,15,10,15
2015/12/12 0:33,3.3,14,3.3,14,7.8,16
2015/12/12 0:34,3.2,15,3.3,14,3.8,16
2015/12/12 0:35,3.1,15,3.2,14,2.1,5
2015/12/12 0:36,3.1,15,3.1,14,3.1,3
2015/12/12 0:37,3.1,16,3.1,14,4.8,16
2015/12/12 0:38,3.1,16,3.1,14,5.4,16
2015/12/12 0:39,3.1,1,3.1,14,4.9,1
2015/12/12 0:40,3.1,1,3.2,14,4.8,15
2015/12/12 0:41,2.9,1,3,14,2.1,15
2015/12/12 0:42,2.2,1,2.9,14,1.1,16
2015/12/12 0:43,1.9,1,2.2,15,3.1,8
2015/12/12 0:44,1.9,2,1.9,15,3.9,8
2015/12/12 0:45,1.9,1,1.9,1,3.2,7
2015/12/12 0:46,1.8,16,1.9,1,2.7,6
2015/12/12 0:47,1.8,12,1.8,1,3.9,8
2015/12/12 0:48,1.7,9,1.8,1,4.4,8
2015/12/12 0:49,1.8,9,1.8,1,4.9,8
2015/12/12 0:50,1.8,9,1.8,1,4.2,9
2015/12/12 0:51,1.7,9,1.8,1,0.9,10
2015/12/12 0:52,1.7,9,1.7,1,0.9,7
2015/12/12 0:53,1.8,9,1.8,2,6.1,6
2015/12/12 0:54,1.8,8,1.8,1,6.1,6
2015/12/12 0:55,2,9,2,9,4.3,14
2015/12/12 0:56,2.1,10,2.1,9,4.3,14
2015/12/12 0:57,2.1,10,2.1,9,3.9,10
2015/12/12 0:58,2.1,10,2.1,9,4.3,10
2015/12/12 0:59,2.1,10,2.1,9,5,10
2015/12/12 1:00,2.3,11,2.3,11,7.5,14
2015/12/12 1:01,2.7,11,2.7,11,6.8,1
2015/12/12 1:02,2.9,12,2.9,12,4.7,1
2015/12/12 1:03,2.9,14,3,12,4.1,16
2015/12/12 1:04,3,14,3,12,4.3,16
2015/12/12 1:05,3.1,15,3.1,14,4.9,16
2015/12/12 1:06,3.1,15,3.1,14,4.2,15
2015/12/12 1:07,3,16,3.1,14,3.5,2
2015/12/12 1:08,3,16,3,14,3,15
2015/12/12 1:09,3,16,3,14,4.1,1
2015/12/12 1:10,2.6,16,2.9,14,2.2,3
2015/12/12 1:11,2.3,16,2.6,14,1.6,15
2015/12/12 1:12,2.1,16,2.2,14,1.5,15
2015/12/12 1:13,1.8,16,2,14,0.8,3
2015/12/12 1:14,1.6,16,1.8,14,1.6,12
2015/12/12 1:15,1.4,15,1.6,15,1.6,12
2015/12/12 1:16,1.4,15,1.4,15,3.6,15
2015/12/12 1:17,1.4,15,1.4,16,3.5,16
2015/12/12 1:18,1.4,15,1.4,16,3.3,1
2015/12/12 1:19,1.3,14,1.4,16,2.7,13
2015/12/12 1:20,1.5,14,1.5,16,3.3,15
2015/12/12 1:21,1.6,15,1.6,16,3,16
2015/12/12 1:22,1.6,15,1.6,16,2.7,14
2015/12/12 1:23,1.8,15,1.8,16,3.7,12
2015/12/12 1:24,1.8,15,1.8,15,1.8,3
2015/12/12 1:25,1.8,15,1.8,15,5.5,15
2015/12/12 1:26,1.9,16,1.9,15,7.8,15
2015/12/12 1:27,2.1,16,2.1,16,5.6,16
2015/12/12 1:28,2.3,16,2.3,16,6.1,1
2015/12/12 1:29,2.5,16,2.5,16,6.8,6
2015/12/12 1:30,2.7,1,2.7,1,9.9,7
2015/12/12 1:31,2.8,1,2.8,1,6.9,5
2015/12/12 1:32,2.9,2,3,2,4.5,5
2015/12/12 1:33,2.8,3,2.9,2,3.2,5
2015/12/12 1:34,2.9,2,2.9,2,2.9,10
2015/12/12 1:35,3,3,3.1,3,6.9,9
2015/12/12 1:36,2.9,3,3,3,4.3,16
2015/12/12 1:37,2.7,4,2.9,3,4.5,16
2015/12/12 1:38,2.5,3,2.7,3,3.3,16
2015/12/12 1:39,2.4,2,2.5,3,4.3,16
2015/12/12 1:40,2.3,1,2.4,3,4.1,1
2015/12/12 1:41,2.2,1,2.3,3,4.2,2
2015/12/12 1:42,2.2,16,2.2,3,5.4,1
2015/12/12 1:43,2.3,16,2.3,3,3.7,3
2015/12/12 1:44,2.3,16,2.3,3,2.2,11
2015/12/12 1:45,2.1,16,2.2,3,2.7,15
2015/12/12 1:46,2.2,16,2.2,4,3.7,15
2015/12/12 1:47,2,16,2.2,4,1.5,7
2015/12/12 1:48,2,16,2,3,4.8,13
2015/12/12 1:49,2,15,2,2,4.2,14
2015/12/12 1:50,2,14,2,1,4.3,11
2015/12/12 1:51,1.9,14,2,16,3.6,16
2015/12/12 1:52,2.1,14,2.1,16,5.5,16
2015/12/12 1:53,2.1,14,2.1,16,5,14
2015/12/12 1:54,2.5,14,2.5,14,9.3,16
2015/12/12 1:55,2.8,15,2.8,14,8.9,16
2015/12/12 1:56,2.7,15,2.8,14,5.6,1
2015/12/12 1:57,2.9,15,2.9,15,4.4,2
2015/12/12 1:58,2.9,16,2.9,15,3.3,1
2015/12/12 1:59,2.8,16,2.9,15,3.2,2
2015/12/12 2:00,2.8,16,2.8,15,4.5,16
2015/12/12 2:01,3.1,16,3.1,16,7.1,16
2015/12/12 2:02,3.2,1,3.2,16,9.7,16
2015/12/12 2:03,3.6,1,3.6,1,10.8,1
2015/12/12 2:04,3.6,1,3.7,1,9.2,15
2015/12/12 2:05,3.6,1,3.6,1,7.7,1
2015/12/12 2:06,4,1,4,1,6.7,3
2015/12/12 2:07,4,1,4,1,4.4,6
2015/12/12 2:08,3.9,1,4,1,3.2,4
2015/12/12 2:09,3.9,1,3.9,1,3.3,2
2015/12/12 2:10,3.9,2,4,1,4.7,16
2015/12/12 2:11,3.6,1,3.9,1,2.5,14
2015/12/12 2:12,3.3,1,3.5,1,3,14
2015/12/12 2:13,2.9,1,3.2,1,6.2,15
2015/12/12 2:14,2.7,1,2.8,1,5.6,15
2015/12/12 2:15,2.6,1,2.7,1,6.2,15
2015/12/12 2:16,2.5,16,2.6,1,4.9,15
2015/12/12 2:17,2.5,16,2.5,1,4.7,16
2015/12/12 2:18,2.6,15,2.6,1,4.1,15
2015/12/12 2:19,2.7,15,2.7,1,3.7,15
2015/12/12 2:20,2.7,15,2.8,2,3.3,16
2015/12/12 2:21,2.7,15,2.7,1,2.4,15
2015/12/12 2:22,2.6,15,2.7,1,1.5,15
2015/12/12 2:23,2.4,15,2.6,1,1.6,5
2015/12/12 2:24,2.1,15,2.4,15,1,3
2015/12/12 2:25,2,15,2.1,15,7.1,15
2015/12/12 2:26,1.9,16,2,15,4.1,15
2015/12/12 2:27,1.9,16,1.9,15,4.7,15
2015/12/12 2:28,1.8,16,1.9,15,4.1,15
2015/12/12 2:29,1.8,16,1.8,15,4.7,16
2015/12/12 2:30,1.8,16,1.8,15,3.2,16
2015/12/12 2:31,1.8,16,1.9,15,3.1,16
2015/12/12 2:32,1.9,16,1.9,15,2.2,2
2015/12/12 2:33,1.9,16,1.9,15,2,2
2015/12/12 2:34,2,16,2,15,2,15
2015/12/12 2:35,1.7,16,2,15,0.8,15
2015/12/12 2:36,1.7,16,1.7,16,1.4,15
2015/12/12 2:37,1.5,15,1.7,16,2.2,12
2015/12/12 2:38,1.5,15,1.5,16,2.2,12
2015/12/12 2:39,1.4,15,1.5,16,2.4,10
2015/12/12 2:40,1.3,14,1.4,16,1.8,13
2015/12/12 2:41,1.2,14,1.3,16,3.3,14
2015/12/12 2:42,1.3,14,1.3,16,2.7,16
2015/12/12 2:43,1.2,14,1.2,16,1.1,1
2015/12/12 2:44,1.4,14,1.4,16,7.6,16
2015/12/12 2:45,1.8,14,1.8,14,7.1,15
2015/12/12 2:46,2,14,2,14,7,15
2015/12/12 2:47,2.2,14,2.2,14,6.9,13
2015/12/12 2:48,2.5,14,2.5,14,6.3,14
2015/12/12 2:49,2.6,15,2.6,15,4.3,14
2015/12/12 2:50,2.7,15,2.7,15,3.6,1
2015/12/12 2:51,2.8,15,2.8,15,4.5,16
2015/12/12 2:52,2.9,15,2.9,15,4.1,15
2015/12/12 2:53,3,15,3,15,2.5,15
2015/12/12 2:54,2.8,15,3,15,2.2,12
2015/12/12 2:55,2.5,14,2.7,15,1.9,11
2015/12/12 2:56,2.2,14,2.5,15,1.4,11
2015/12/12 2:57,2,14,2.2,15,3,11
2015/12/12 2:58,1.7,13,2,15,2.7,10
2015/12/12 2:59,1.7,13,1.7,15,3,11
2015/12/12 3:00,1.6,12,1.7,15,3.1,10
2015/12/12 3:01,1.5,12,1.6,15,3.5,10
2015/12/12 3:02,1.5,11,1.5,15,3.6,11
2015/12/12 3:03,1.6,11,1.6,15,3.5,11
2015/12/12 3:04,1.7,12,1.7,15,7.9,15
2015/12/12 3:05,1.9,12,1.9,14,5.6,15
2015/12/12 3:06,2.2,12,2.2,14,5.4,16
2015/12/12 3:07,2.3,13,2.3,13,4.5,16
2015/12/12 3:08,2.4,14,2.4,14,4.4,1
2015/12/12 3:09,2.4,14,2.4,14,4.2,16
2015/12/12 3:10,2.4,15,2.4,14,2.2,14
2015/12/12 3:11,2.3,15,2.4,14,1.3,14
2015/12/12 3:12,2.2,15,2.2,14,2.5,9
2015/12/12 3:13,2.1,15,2.2,14,2.5,9
2015/12/12 3:14,1.9,14,2.1,14,2.1,10
2015/12/12 3:15,1.8,13,1.9,14,2.5,11
2015/12/12 3:16,1.8,12,1.8,14,4.1,11
2015/12/12 3:17,1.7,12,1.8,14,3.7,10
2015/12/12 3:18,1.5,11,1.7,14,1.1,13
2015/12/12 3:19,1.3,11,1.5,14,0.8,6
2015/12/12 3:20,1.3,11,1.3,15,2.7,8
2015/12/12 3:21,1.4,11,1.4,15,4.2,14
2015/12/12 3:22,1.5,11,1.5,15,4.9,12
2015/12/12 3:23,1.7,12,1.7,15,6.4,15
2015/12/12 3:24,1.9,13,1.9,14,5.5,15
2015/12/12 3:25,1.9,14,1.9,12,3.5,16
2015/12/12 3:26,1.7,15,1.9,12,2.4,1
2015/12/12 3:27,1.5,16,1.7,12,0.8,15
2015/12/12 3:28,1.5,16,1.5,12,1,9
2015/12/12 3:29,1.6,16,1.6,12,2.6,2
2015/12/12 3:30,1.7,16,1.7,12,3.1,1
2015/12/12 3:31,1.8,1,1.8,12,3.2,1
2015/12/12 3:32,1.7,1,1.8,12,3.3,16
2015/12/12 3:33,1.5,1,1.7,12,1.8,8
2015/12/12 3:34,1.3,2,1.5,13,1.4,13
2015/12/12 3:35,1.2,2,1.2,14,2.2,10
2015/12/12 3:36,1.2,2,1.2,16,2.9,8
2015/12/12 3:37,1.2,2,1.2,16,1.5,9
2015/12/12 3:38,1.4,1,1.4,16,3.6,12
2015/12/12 3:39,1.6,16,1.6,16,3.7,12
2015/12/12 3:40,1.6,14,1.6,16,3.1,12
2015/12/12 3:41,1.6,12,1.6,1,2.6,13
2015/12/12 3:42,1.4,12,1.5,1,1.8,12
2015/12/12 3:43,1.4,12,1.4,16,1,15
2015/12/12 3:44,1.4,12,1.4,16,2.4,14
2015/12/12 3:45,1.5,13,1.5,16,2.2,16
2015/12/12 3:46,1.6,13,1.6,16,3.5,15
2015/12/12 3:47,1.7,13,1.7,13,2.4,14
2015/12/12 3:48,1.7,14,1.7,13,3.5,15
2015/12/12 3:49,1.6,14,1.7,13,3.7,1
2015/12/12 3:50,1.6,15,1.6,13,3,15
2015/12/12 3:51,1.7,15,1.7,13,3.8,15
2015/12/12 3:52,1.8,15,1.8,15,3.9,15
2015/12/12 3:53,1.9,15,1.9,15,3,15
2015/12/12 3:54,1.9,15,1.9,15,1.5,14
2015/12/12 3:55,1.9,15,1.9,15,3.8,13
2015/12/12 3:56,1.8,15,1.9,15,3.6,16
2015/12/12 3:57,1.7,15,1.8,15,1.4,2
2015/12/12 3:58,1.6,15,1.7,15,1.5,15
2015/12/12 3:59,1.4,15,1.6,15,1.9,13
2015/12/12 4:00,1.5,15,1.5,15,3.9,15
2015/12/12 4:01,1.6,15,1.6,15,6.2,15
2015/12/12 4:02,1.7,15,1.7,15,5,14
2015/12/12 4:03,1.9,15,1.9,15,4.7,16
2015/12/12 4:04,2,15,2,15,3.3,14
2015/12/12 4:05,2.3,15,2.3,15,7.9,15
2015/12/12 4:06,2.3,15,2.3,15,5,14
2015/12/12 4:07,2.3,15,2.3,15,2.6,16
2015/12/12 4:08,2.7,15,2.7,15,7.5,14
2015/12/12 4:09,3.1,15,3.1,15,7.8,15
2015/12/12 4:10,3.4,15,3.4,15,6.8,14
2015/12/12 4:11,3.3,15,3.4,15,4.9,16
2015/12/12 4:12,3.3,15,3.3,15,4.4,13
2015/12/12 4:13,3.3,15,3.3,15,5.6,15
2015/12/12 4:14,3.5,15,3.5,15,6.1,15
2015/12/12 4:15,3.4,15,3.5,15,6.9,15
2015/12/12 4:16,3.5,15,3.5,15,4.3,14
2015/12/12 4:17,3.6,15,3.6,15,3.2,2
2015/12/12 4:18,3.3,15,3.6,15,3.9,13
2015/12/12 4:19,3.1,15,3.3,15,5.7,12
2015/12/12 4:20,2.8,15,3.1,15,3.5,13
2015/12/12 4:21,2.5,14,2.8,15,1.4,12
2015/12/12 4:22,2.4,14,2.5,15,1.8,16
2015/12/12 4:23,2.1,14,2.3,15,1.9,1
2015/12/12 4:24,1.9,14,2.1,15,3.6,15
2015/12/12 4:25,1.7,14,1.9,15,3.7,14
2015/12/12 4:26,1.7,14,1.7,15,4.2,12
2015/12/12 4:27,1.8,14,1.8,15,5.5,15
2015/12/12 4:28,2,14,2,15,4.3,15
2015/12/12 4:29,2,14,2,15,4.5,15
2015/12/12 4:30,2.2,14,2.2,15,4.7,15
2015/12/12 4:31,2.4,15,2.4,14,5.2,15
2015/12/12 4:32,2.6,15,2.6,15,4.9,16
2015/12/12 4:33,2.8,15,2.8,15,3.6,16
2015/12/12 4:34,3,15,3,15,4.8,15
2015/12/12 4:35,3.1,15,3.1,15,4.9,15
2015/12/12 4:36,3.2,15,3.2,15,5.4,14
2015/12/12 4:37,3.1,15,3.2,15,3.9,14
2015/12/12 4:38,3,15,3.1,15,4.2,16
2015/12/12 4:39,2.7,15,2.9,15,1.1,4
2015/12/12 4:40,2.4,15,2.6,15,1.3,5
2015/12/12 4:41,2.2,15,2.4,15,2.6,8
2015/12/12 4:42,2,16,2.2,15,3.3,8
2015/12/12 4:43,2,15,2,15,3.7,12
2015/12/12 4:44,1.9,15,2,15,3.5,13
2015/12/12 4:45,1.8,14,1.9,15,3.3,11
2015/12/12 4:46,1.7,14,1.8,15,4.5,12
2015/12/12 4:47,1.8,13,1.8,15,4.9,12
2015/12/12 4:48,1.9,12,1.9,15,4.2,15
2015/12/12 4:49,2.1,13,2.1,15,4.1,15
2015/12/12 4:50,2.3,13,2.3,15,3.9,16
2015/12/12 4:51,2.2,14,2.3,13,1.4,15
2015/12/12 4:52,2.1,13,2.2,13,0.8,4
2015/12/12 4:53,2,13,2.1,13,2,12
2015/12/12 4:54,2,13,2,13,3.7,12
2015/12/12 4:55,2.1,13,2.1,13,3.9,12
2015/12/12 4:56,2,13,2.1,13,3.2,12
2015/12/12 4:57,1.7,14,1.9,13,1.3,12
2015/12/12 4:58,1.8,14,1.9,13,6.3,14
2015/12/12 4:59,2.1,14,2.1,13,10.6,16
2015/12/12 5:00,2.2,14,2.2,14,7,15
2015/12/12 5:01,2.7,14,2.7,14,7.5,1
2015/12/12 5:02,3,14,3,14,5.7,15
2015/12/12 5:03,3.4,14,3.4,14,7.7,15
2015/12/12 5:04,3.6,15,3.6,14,6.8,16
2015/12/12 5:05,3.7,15,3.7,15,6.4,15
2015/12/12 5:06,3.8,15,3.8,15,5.4,14
2015/12/12 5:07,4.2,15,4.2,15,6.7,15
2015/12/12 5:08,4.1,15,4.2,15,4.5,15
2015/12/12 5:09,3.8,15,4.1,15,4.7,14
2015/12/12 5:10,3.7,15,3.8,15,5.6,13
2015/12/12 5:11,3.6,15,3.7,15,4.5,16
2015/12/12 5:12,3.6,15,3.6,15,5.7,16
2015/12/12 5:13,3.4,15,3.6,15,6,15
2015/12/12 5:14,3.3,15,3.4,15,3.8,16
2015/12/12 5:15,3.1,15,3.3,15,3,1
2015/12/12 5:16,3.1,16,3.2,15,5.8,2
2015/12/12 5:17,2.9,16,3.1,15,3.7,2
2015/12/12 5:18,2.9,1,3,15,4.2,3
2015/12/12 5:19,2.9,1,3,15,5.5,5
2015/12/12 5:20,2.8,2,2.9,15,2.4,3
2015/12/12 5:21,2.6,2,2.8,15,5.1,1
2015/12/12 5:22,2.5,2,2.6,15,5.5,16
2015/12/12 5:23,2.3,3,2.4,15,2.4,2
2015/12/12 5:24,2.3,3,2.3,15,4.4,1
2015/12/12 5:25,2.5,3,2.5,16,5.7,1
2015/12/12 5:26,2.3,2,2.5,16,2.6,15
2015/12/12 5:27,2.2,2,2.3,16,2,11
2015/12/12 5:28,2.1,1,2.2,1,1.9,11
2015/12/12 5:29,2,15,2.1,1,3.2,12
2015/12/12 5:30,2.2,15,2.2,2,4.8,12
2015/12/12 5:31,2.3,14,2.3,2,3.7,13
2015/12/12 5:32,2.3,13,2.3,3,3.3,12
2015/12/12 5:33,2.4,13,2.4,3,3.3,12
2015/12/12 5:34,2.3,13,2.4,3,2.2,2
2015/12/12 5:35,2,13,2.3,3,2,15
2015/12/12 5:36,1.9,13,2,13,1.3,14
2015/12/12 5:37,1.9,14,1.9,13,0.9,1
2015/12/12 5:38,1.8,15,1.9,13,0.3,1
2015/12/12 5:39,1.5,15,1.7,13,0,1
2015/12/12 5:40,1.2,16,1.5,13,1.9,8
2015/12/12 5:41,1.1,16,1.2,13,1.9,8
2015/12/12 5:42,1,1,1.1,13,2,5
2015/12/12 5:43,1,2,1,13,3.2,4
2015/12/12 5:44,1,3,1,13,2.4,4
2015/12/12 5:45,0.9,4,1,13,1.4,6
2015/12/12 5:46,0.9,5,0.9,13,1.4,7
2015/12/12 5:47,0.9,5,1,14,1.5,6
2015/12/12 5:48,0.9,6,0.9,15,0.4,16
2015/12/12 5:49,1,6,1,15,0.8,12
2015/12/12 5:50,1,7,1,16,1.6,12
2015/12/12 5:51,0.9,7,1,16,1.5,9
2015/12/12 5:52,0.9,8,0.9,1,3.3,8
2015/12/12 5:53,0.9,8,0.9,2,3,7
2015/12/12 5:54,0.9,8,0.9,3,2.2,5
2015/12/12 5:55,0.9,8,0.9,5,2.1,5
2015/12/12 5:56,1,9,1,5,2.2,8
2015/12/12 5:57,1.1,8,1.1,8,1.6,8
2015/12/12 5:58,1.3,8,1.3,8,3.5,8
2015/12/12 5:59,1.3,8,1.3,8,3.7,6
2015/12/12 6:00,1.4,8,1.4,8,3.5,9
2015/12/12 6:01,1.5,8,1.5,8,2.9,8
2015/12/12 6:02,1.5,8,1.5,8,3,9
2015/12/12 6:03,1.4,8,1.5,8,2,9
2015/12/12 6:04,1.4,8,1.4,8,2,9
2015/12/12 6:05,1.4,8,1.4,8,2.4,7
2015/12/12 6:06,1.6,8,1.6,8,6.4,8
2015/12/12 6:07,1.9,8,1.9,8,6.8,7
2015/12/12 6:08,2,8,2,8,5.2,8
2015/12/12 6:09,2.1,8,2.1,8,2.5,7
2015/12/12 6:10,2,8,2.1,8,2.1,5
2015/12/12 6:11,2,7,2,8,1.5,2
2015/12/12 6:12,1.9,7,2,8,2.1,1
2015/12/12 6:13,2,6,2,8,2.1,16
2015/12/12 6:14,1.9,5,2,8,1.5,15
2015/12/12 6:15,1.8,4,1.9,8,1.3,12
2015/12/12 6:16,1.6,2,1.8,8,1.4,12
2015/12/12 6:17,1.3,16,1.5,8,2.2,10
2015/12/12 6:18,1.1,15,1.3,8,2.1,10
2015/12/12 6:19,1,15,1.1,8,1.5,15
2015/12/12 6:20,1.1,15,1.1,8,2.1,16
2015/12/12 6:21,1.2,15,1.2,7,2.2,1
2015/12/12 6:22,1.3,15,1.3,6,2.9,16
2015/12/12 6:23,1.3,15,1.3,6,3.5,1
2015/12/12 6:24,1.4,15,1.4,6,2.5,8
2015/12/12 6:25,1.5,15,1.5,4,5.7,1
2015/12/12 6:26,1.7,16,1.7,16,4.1,16
2015/12/12 6:27,1.8,16,1.8,16,4.5,15
2015/12/12 6:28,2,1,2,1,5.5,6
2015/12/12 6:29,2.2,1,2.2,1,4.9,6
2015/12/12 6:30,2.3,2,2.3,2,4.5,7
2015/12/12 6:31,2.3,4,2.3,2,3.8,6
2015/12/12 6:32,2.4,5,2.4,4,4.8,5
2015/12/12 6:33,2.4,6,2.4,4,4.5,5
2015/12/12 6:34,2.5,6,2.5,6,3,4
2015/12/12 6:35,2.4,6,2.5,6,3,6
2015/12/12 6:36,2.3,6,2.4,6,2.4,6
2015/12/12 6:37,2.2,7,2.3,6,2.9,9
2015/12/12 6:38,2,7,2.2,6,2.1,8
2015/12/12 6:39,1.7,6,1.9,6,0.8,3
2015/12/12 6:40,1.5,6,1.7,6,1.3,2
2015/12/12 6:41,1.5,5,1.5,6,2.1,16
2015/12/12 6:42,1.3,5,1.5,6,2.2,16
2015/12/12 6:43,1.3,4,1.4,6,2.7,16
2015/12/12 6:44,1.2,3,1.3,6,2.1,16
2015/12/12 6:45,1.2,1,1.2,6,1.8,16
2015/12/12 6:46,1.1,1,1.1,6,1.1,12
2015/12/12 6:47,1,16,1.1,7,1.3,15
2015/12/12 6:48,1,16,1,7,1.4,13
2015/12/12 6:49,1.1,15,1.1,6,1.1,14
2015/12/12 6:50,1,15,1.1,6,0.8,6
2015/12/12 6:51,0.9,15,1,5,0.9,6
2015/12/12 6:52,0.8,16,0.9,4,0.8,8
2015/12/12 6:53,0.6,16,0.8,4,0.6,3
2015/12/12 6:54,0.7,1,0.7,2,4.2,7
2015/12/12 6:55,0.9,8,0.9,1,4.7,8
2015/12/12 6:56,1.1,7,1.1,1,3.7,9
2015/12/12 6:57,1.2,8,1.2,8,3,10
2015/12/12 6:58,1.2,7,1.2,8,2.4,9
2015/12/12 6:59,1.2,7,1.2,8,1.3,10
2015/12/12 7:00,1.2,8,1.2,8,1.3,13
2015/12/12 7:01,1.2,9,1.2,8,0.5,11
2015/12/12 7:02,1.2,10,1.2,8,1.9,6
2015/12/12 7:03,1.3,10,1.3,10,2.4,6
2015/12/12 7:04,1.2,10,1.3,10,1.8,5
2015/12/12 7:05,1,9,1.2,10,1.6,7
2015/12/12 7:06,0.8,8,1,10,1,5
2015/12/12 7:07,0.6,8,0.8,10,0.1,1
2015/12/12 7:08,0.5,9,0.6,10,0.8,13
2015/12/12 7:09,0.6,10,0.6,10,1.8,13
2015/12/12 7:10,0.7,10,0.7,10,1.6,12
2015/12/12 7:11,0.8,10,0.8,10,1.5,14
2015/12/12 7:12,0.8,11,0.8,10,1.4,14
2015/12/12 7:13,0.7,12,0.8,10,0.9,13
2015/12/12 7:14,0.6,13,0.7,10,0.5,13
2015/12/12 7:15,0.5,12,0.6,9,0.1,11
2015/12/12 7:16,0.5,12,0.5,8,0.8,7
2015/12/12 7:17,0.6,12,0.6,10,1.9,8
2015/12/12 7:18,0.7,11,0.7,10,1.3,6
2015/12/12 7:19,0.6,10,0.7,10,0.4,6
2015/12/12 7:20,0.5,9,0.6,10,0.5,3
2015/12/12 7:21,0.4,8,0.5,10,0.9,1
2015/12/12 7:22,0.4,7,0.4,11,2.4,2
2015/12/12 7:23,0.6,6,0.6,12,2.7,16
2015/12/12 7:24,0.8,5,0.8,5,2.7,1
2015/12/12 7:25,0.9,3,0.9,4,2.5,16
2015/12/12 7:26,1.1,2,1.1,3,2.4,15
2015/12/12 7:27,1.1,1,1.1,3,1.6,14
2015/12/12 7:28,1.1,16,1.1,3,1.5,10
2015/12/12 7:29,1.1,16,1.1,3,2.1,8
2015/12/12 7:30,1.2,16,1.2,16,2.1,7
2015/12/12 7:31,1.2,15,1.2,16,1.5,7
2015/12/12 7:32,1.2,15,1.2,16,1.8,4
2015/12/12 7:33,1.2,16,1.2,16,2.2,4
2015/12/12 7:34,1.1,16,1.2,16,1.5,3
2015/12/12 15:47,0.5,3,0.5,3,0.5,3
2015/12/12 15:48,0.5,3,0.5,3,0.5,3
2015/12/12 15:49,0.4,2,0.4,3,0.6,2
2015/12/12 15:50,0.2,16,0.4,3,0.3,2
2015/12/12 15:51,0.2,15,0.2,3,1.3,13
2015/12/12 15:52,0.4,14,0.4,3,1.3,13
2015/12/12 15:53,0.5,14,0.5,3,1.3,13
2015/12/12 15:54,0.5,13,0.5,3,0.5,14
2015/12/12 15:55,0.4,14,0.5,3,0.3,15
2015/12/12 15:56,0.4,14,0.4,3,0,15
2015/12/12 15:57,0.3,14,0.4,3,0.1,15
2015/12/12 15:58,0.3,14,0.3,14,0.8,12
2015/12/12 15:59,0.3,13,0.3,14,0.9,12
2015/12/12 16:00,0.4,13,0.4,14,1,13
2015/12/12 16:01,0.5,13,0.5,14,1,13
2015/12/12 16:02,0.5,13,0.5,14,1,12
2015/12/12 16:03,0.4,13,0.5,14,0.9,13
2015/12/12 16:04,0.5,13,0.5,13,0.8,12
2015/12/12 16:05,0.5,13,0.5,13,0.8,12
2015/12/12 16:06,0.6,13,0.6,13,0.9,13
2015/12/12 16:07,0.6,12,0.6,13,0.8,13
2015/12/12 16:08,0.7,12,0.7,12,0.6,12
2015/12/12 16:09,0.7,12,0.7,12,0.8,13
2015/12/12 16:10,0.6,12,0.7,12,0.5,12
2015/12/12 16:11,0.6,12,0.6,12,0.6,13
2015/12/12 16:12,0.6,12,0.6,12,1,12
2015/12/12 16:13,0.6,12,0.6,12,0.9,12
2015/12/12 16:14,0.6,12,0.6,12,1,12
2015/12/12 16:15,0.6,12,0.6,12,0.8,13
2015/12/12 16:16,0.6,12,0.6,12,0.8,12
2015/12/12 16:17,0.6,12,0.6,12,0.8,12
2015/12/12 16:18,0.6,12,0.6,12,0.8,12
2015/12/12 16:19,0.5,12,0.6,12,0.5,12
2015/12/12 16:20,0.5,12,0.5,12,0,12
2015/12/12 16:21,0.5,12,0.5,12,0.1,12
2015/12/12 16:22,0.4,12,0.5,12,0.5,12
2015/12/12 16:23,0.4,12,0.4,12,0.6,13
2015/12/12 16:24,0.3,12,0.4,12,0.6,12
2015/12/12 16:25,0.3,12,0.3,12,0.8,12
2015/12/12 16:26,0.3,12,0.3,13,0.6,11
2015/12/12 16:27,0.3,12,0.3,12,0.8,13
2015/12/12 16:28,0.4,12,0.4,12,0.9,13
2015/12/12 16:29,0.4,12,0.4,12,1.1,11
2015/12/12 16:30,0.5,12,0.5,12,1.3,11
2015/12/12 16:31,0.6,12,0.6,12,1.1,11
2015/12/12 16:32,0.7,11,0.7,11,1,10
2015/12/12 16:33,0.7,11,0.7,11,1,9
2015/12/12 16:34,0.7,11,0.7,11,0.9,10
2015/12/12 16:35,0.7,11,0.7,11,1.3,10
2015/12/12 16:36,0.7,10,0.7,11,1.4,10
2015/12/12 16:37,0.8,10,0.8,10,1.3,10
2015/12/12 16:38,0.8,10,0.8,10,1.4,9
2015/12/12 16:39,0.8,10,0.8,10,1.5,10
2015/12/12 16:40,0.8,10,0.8,10,1.3,10
2015/12/12 16:41,0.9,10,0.9,10,1.8,9
2015/12/12 16:42,0.9,10,0.9,10,1.1,9
2015/12/12 16:43,0.8,10,0.9,10,1,9
2015/12/12 16:44,0.8,10,0.8,10,0.8,9
2015/12/12 16:45,0.8,10,0.8,10,1,10
2015/12/12 16:46,0.8,10,0.8,10,1,10
2015/12/12 16:47,0.8,10,0.8,10,1,11
2015/12/12 16:48,0.8,10,0.8,10,0.9,10
2015/12/12 16:49,0.7,10,0.8,10,0.5,11
2015/12/12 16:50,0.6,10,0.7,10,0.4,11
2015/12/12 16:51,0.5,10,0.6,10,0.3,11
2015/12/12 16:52,0.4,11,0.5,10,0,11
2015/12/12 16:53,0.4,11,0.4,10,0,11
2015/12/12 16:54,0.4,11,0.4,10,0.4,11
2015/12/12 16:55,0.3,11,0.3,10,0.6,10
2015/12/12 16:56,0.2,11,0.3,10,0,10
2015/12/12 16:57,0.2,11,0.2,10,0.4,12
2015/12/12 16:58,0.2,11,0.2,10,1,11
2015/12/12 16:59,0.2,11,0.2,10,1,11
2015/12/12 17:00,0.3,11,0.3,10,1.1,11
2015/12/12 17:01,0.4,11,0.4,11,1.1,11
2015/12/12 17:02,0.5,11,0.5,11,1.6,11
2015/12/12 17:03,0.6,11,0.6,11,1.3,11
2015/12/12 17:04,0.7,11,0.7,11,1.1,12
2015/12/12 17:05,0.7,12,0.7,11,0.8,13
2015/12/12 17:06,0.8,12,0.8,12,0.9,14
2015/12/12 17:07,0.8,12,0.8,12,1,15
2015/12/12 17:08,0.7,13,0.8,12,0.3,14
2015/12/12 17:09,0.7,12,0.7,12,0.1,7
2015/12/12 17:10,0.6,12,0.7,12,0,7
2015/12/12 17:11,0.5,12,0.6,12,0,7
2015/12/12 17:12,0.4,12,0.5,12,0.5,4
2015/12/12 17:13,0.3,12,0.4,12,0.6,5
2015/12/12 17:14,0.3,5,0.3,12,0.8,5
2015/12/12 17:15,0.2,5,0.3,12,0.4,5
2015/12/12 17:16,0.2,5,0.2,12,0.1,4
2015/12/12 17:17,0.1,5,0.2,12,0,4
2015/12/12 17:18,0.1,5,0.1,13,0,3
2015/12/12 17:19,0.1,4,0.1,12,0.1,3
2015/12/12 17:20,0.1,4,0.1,12,0.9,2
2015/12/12 17:21,0.2,4,0.2,12,1,2
2015/12/12 17:22,0.3,3,0.3,12,1.8,1
2015/12/12 17:23,0.4,3,0.4,3,2.1,1
2015/12/12 17:24,0.5,2,0.5,2,2,15
2015/12/12 17:25,0.5,2,0.5,2,1.1,2
2015/12/12 17:26,0.6,2,0.6,2,1.5,2
2015/12/12 17:27,0.7,2,0.7,2,1.4,2
2015/12/12 17:28,0.8,2,0.8,2,1,2
2015/12/12 17:29,0.8,2,0.8,2,0.8,2
2015/12/12 17:30,0.9,2,0.9,2,1,3
2015/12/12 17:31,0.9,2,0.9,2,0.9,3
2015/12/12 17:32,0.8,2,0.9,2,0.6,3
2015/12/12 17:33,0.7,2,0.8,2,1,16
2015/12/12 17:34,0.7,2,0.7,2,1.4,16
2015/12/12 17:35,0.8,2,0.8,2,2,16
2015/12/12 17:36,0.7,2,0.8,2,1.6,16
2015/12/12 17:37,0.8,1,0.8,2,2.1,16
2015/12/12 17:38,0.9,1,0.9,2,2.4,16
2015/12/12 17:39,1,1,1,1,2,1
2015/12/12 17:40,1,1,1,1,1.8,1
2015/12/12 17:41,1,16,1,1,1.4,16
2015/12/12 17:42,1.2,16,1.2,16,1.9,16
2015/12/12 17:43,1.3,16,1.3,16,1.9,16
2015/12/12 17:44,1.4,16,1.4,16,2,16
2015/12/12 17:45,1.4,16,1.4,16,2.1,16
2015/12/12 17:46,1.4,16,1.4,16,1.6,15
2015/12/12 17:47,1.4,16,1.4,16,1.9,15
2015/12/12 17:48,1.4,16,1.4,16,2,16
2015/12/12 17:49,1.3,16,1.4,16,1.8,16
2015/12/12 17:50,1.3,16,1.3,16,1.1,16
2015/12/12 17:51,1.3,16,1.3,16,1,1
2015/12/12 17:52,1.2,16,1.2,16,1.1,1
2015/12/12 17:53,1.1,16,1.2,16,1,1
2015/12/12 17:54,1,1,1.1,16,1.4,1
2015/12/12 17:55,1,1,1,16,1.5,1
2015/12/12 17:56,1,1,1,16,1.6,16
2015/12/12 17:57,0.9,1,1,16,1.8,2
2015/12/12 17:58,0.8,1,0.9,16,1.4,3
2015/12/12 17:59,0.9,1,0.9,16,1.3,1
2015/12/12 18:00,0.9,1,0.9,16,1.9,16
2015/12/12 18:01,1,1,1,16,1.1,1
2015/12/12 18:02,1,1,1,16,1.6,16
2015/12/12 18:03,1.1,1,1.1,16,1.9,16
2015/12/12 18:04,1.1,1,1.1,1,1.8,1
2015/12/12 18:05,1.2,1,1.2,1,1.8,1
2015/12/12 18:06,1.2,1,1.2,1,1.8,1
2015/12/12 18:07,1.2,1,1.2,1,1.6,2
2015/12/12 18:08,1.2,1,1.2,1,1.6,1
2015/12/12 18:09,1.1,1,1.2,1,0.6,16
2015/12/12 18:10,1.1,1,1.1,1,0.6,16
2015/12/12 18:11,1,1,1,1,1,2
2015/12/12 18:12,0.9,1,1,1,1.1,3
2015/12/12 18:13,0.9,1,0.9,1,2,2
2015/12/12 18:14,0.9,2,0.9,1,1.8,2
2015/12/12 18:15,0.8,2,0.9,1,1.8,4
2015/12/12 18:16,0.8,2,0.8,1,1.5,1
2015/12/12 18:17,0.8,2,0.8,1,1.6,3
2015/12/12 18:18,0.9,2,0.9,1,1.6,4
2015/12/12 18:19,1,2,1,1,2,3
2015/12/12 18:20,1.1,2,1.1,2,2.4,16
2015/12/12 18:21,1.2,2,1.2,2,2,1
2015/12/12 18:22,1.3,2,1.3,2,2,15
2015/12/12 18:23,1.3,2,1.3,2,2.2,1
2015/12/12 18:24,1.4,2,1.4,2,3.2,2
2015/12/12 18:25,1.4,2,1.4,2,2.5,2
2015/12/12 18:26,1.5,2,1.5,2,2.9,1
2015/12/12 18:27,1.5,1,1.5,2,1.8,1
2015/12/12 18:28,1.5,1,1.5,2,2.5,2
2015/12/12 18:29,1.6,1,1.6,1,3,3
2015/12/12 18:30,1.6,1,1.6,1,2.7,2
2015/12/12 18:31,1.7,1,1.7,1,2.4,3
2015/12/12 18:32,1.7,2,1.7,1,2.4,3
2015/12/12 18:33,1.6,2,1.7,1,1.5,3
2015/12/12 18:34,1.6,2,1.6,1,2.1,16
2015/12/12 18:35,1.5,1,1.5,1,1.8,16
2015/12/12 18:36,1.3,2,1.4,1,1.1,16
2015/12/12 18:37,1.4,2,1.4,1,2,2
2015/12/12 18:38,1.4,2,1.4,1,2.4,3
2015/12/12 18:39,1.3,1,1.4,1,2.5,16
2015/12/12 18:40,1.2,1,1.3,1,1.6,16
2015/12/12 18:41,1.2,1,1.2,1,2.2,1
2015/12/12 18:42,1.1,1,1.1,2,2.1,2
2015/12/12 18:43,1.2,16,1.2,2,2.6,16
2015/12/12 18:44,1.2,16,1.2,2,2.4,16
2015/12/12 18:45,1.2,16,1.2,1,2.4,15
2015/12/12 18:46,1.3,16,1.3,2,2.2,1
2015/12/12 18:47,1.3,16,1.3,2,2,2
2015/12/12 18:48,1.3,16,1.3,2,1.9,2
2015/12/12 18:49,1.3,16,1.3,2,3.3,1
2015/12/12 18:50,1.4,1,1.4,16,2.7,2
2015/12/12 18:51,1.5,1,1.5,1,2.5,16
2015/12/12 18:52,1.5,1,1.5,1,3.1,2
2015/12/12 18:53,1.5,1,1.6,1,2.5,1
2015/12/12 18:54,1.5,1,1.6,1,2.6,1
2015/12/12 18:55,1.5,1,1.6,1,2.1,1
2015/12/12 18:56,1.5,1,1.5,1,1.8,2
2015/12/12 18:57,1.5,1,1.5,1,2.1,15
2015/12/12 18:58,1.5,1,1.5,1,1.9,15
2015/12/12 18:59,1.4,1,1.5,1,1.9,1
2015/12/12 19:00,1.4,1,1.4,1,2.2,15
2015/12/12 19:01,1.4,1,1.4,1,1.8,16
2015/12/12 19:02,1.3,1,1.4,1,1.8,16
2015/12/12 19:03,1.3,1,1.3,1,1.4,2